| time (UTC) | temp F | wind direction | speed knots | gust knots | rain 1hr in | rain 24hr in | rain mn in | humidity % | barometer mb |
| 20260507171547 | 60 | 219 | 4.3 | 7.0 | 0.00 | 0.00 | 0.00 | 89 | 1016.2 |
| 20260507164603 | 60 | 208 | 2.6 | 4.3 | 0.00 | 0.00 | 0.00 | 89 | 1016.1 |
| 20260507163042 | 60 | 211 | 2.6 | 5.2 | 0.00 | 0.00 | 0.00 | 89 | 1016.1 |
| 20260507161552 | 60 | 192 | 2.6 | 5.2 | 0.00 | 0.00 | 0.00 | 88 | 1016.1 |
| 20260507160042 | 61 | 200 | 2.6 | 3.5 | 0.00 | 0.00 | 0.00 | 87 | 1016.2 |
| 20260507154541 | 62 | 183 | 0.9 | 1.7 | 0.00 | 0.00 | 0.00 | 86 | 1016.4 |
| 20260507153041 | 61 | 265 | 0.0 | 0.9 | 0.00 | 0.00 | 0.00 | 88 | 1016.4 |
| 20260507151536 | 60 | 266 | 0.9 | 1.7 | 0.00 | 0.00 | 0.00 | 87 | 1016.3 |
| 20260507150035 | 60 | 308 | 0.0 | 1.7 | 0.00 | 0.00 | 0.00 | 87 | 1016.1 |
| 20260507144536 | 61 | 308 | 0.0 | 1.7 | 0.00 | 0.00 | 0.00 | 86 | 1016.1 |
| 20260507143030 | 60 | 329 | 0.0 | 1.7 | 0.00 | 0.00 | 0.00 | 88 | 1016.0 |
| 20260507141524 | 59 | 337 | 0.0 | 1.7 | 0.00 | 0.00 | 0.00 | 88 | 1015.7 |
| 20260507140022 | 58 | 337 | 0.0 | 2.6 | 0.00 | 0.00 | 0.00 | 89 | 1015.6 |
| 20260507134519 | 58 | 11 | 0.9 | 1.7 | 0.00 | 0.00 | 0.00 | 88 | 1015.3 |
| 20260507133024 | 58 | 26 | 0.0 | 0.0 | 0.00 | 0.00 | 0.00 | 88 | 1015.1 |
| 20260507131519 | 58 | 26 | 0.0 | 0.9 | 0.00 | 0.00 | 0.00 | 88 | 1014.9 |
| 20260507130017 | 58 | 26 | 0.0 | 1.7 | 0.00 | 0.00 | 0.00 | 88 | 1014.9 |
| 20260507124520 | 57 | 26 | 0.9 | 2.6 | 0.00 | 0.00 | 0.00 | 87 | 1014.9 |
| 20260507123019 | 58 | 48 | 0.0 | 1.7 | 0.00 | 0.00 | 0.00 | 87 | 1014.8 |
| 20260507121516 | 58 | 55 | 0.0 | 1.7 | 0.00 | 0.00 | 0.00 | 87 | 1014.9 |
| 20260507120014 | 58 | 18 | 1.7 | 3.5 | 0.00 | 0.00 | 0.00 | 86 | 1014.9 |
| 20260507114513 | 58 | 24 | 1.7 | 3.5 | 0.00 | 0.00 | 0.00 | 87 | 1014.9 |
| 20260507113033 | 57 | 28 | 1.7 | 3.5 | 0.00 | 0.00 | 0.00 | 86 | 1014.9 |
| 20260507111511 | 57 | 5 | 2.6 | 3.5 | 0.00 | 0.00 | 0.00 | 86 | 1015.0 |
| 20260507110011 | 58 | 17 | 1.7 | 2.6 | 0.00 | 0.00 | 0.00 | 86 | 1015.2 |
| 20260507104506 | 58 | 360 | 0.9 | 1.7 | 0.00 | 0.00 | 0.00 | 86 | 1015.2 |
| 20260507103005 | 58 | 17 | 0.9 | 2.6 | 0.00 | 0.00 | 0.00 | 86 | 1015.2 |
| 20260507101512 | 58 | 67 | 0.9 | 2.6 | 0.00 | 0.00 | 0.00 | 85 | 1015.3 |
| 20260507100002 | 59 | 62 | 0.0 | 0.0 | 0.00 | 0.00 | 0.00 | 86 | 1015.3 |
| 20260507094700 | 59 | 62 | 0.0 | 1.7 | 0.00 | 0.00 | 0.00 | 86 | 1015.4 |
| 20260507093058 | 59 | 53 | 0.0 | 1.7 | 0.00 | 0.00 | 0.00 | 86 | 1015.5 |
| 20260507091630 | 59 | 53 | 0.0 | 1.7 | 0.00 | 0.00 | 0.00 | 85 | 1015.7 |
| 20260507090054 | 59 | 28 | 0.0 | 0.9 | 0.00 | 0.00 | 0.00 | 85 | 1016.0 |
| 20260507084603 | 59 | 28 | 0.0 | 2.6 | 0.00 | 0.00 | 0.00 | 85 | 1016.1 |
| 20260507083049 | 60 | 355 | 1.7 | 3.5 | 0.00 | 0.00 | 0.00 | 86 | 1016.2 |
| 20260507081556 | 60 | 315 | 1.7 | 2.6 | 0.00 | 0.00 | 0.00 | 85 | 1016.3 |
| 20260507080046 | 60 | 298 | 0.0 | 1.7 | 0.00 | 0.00 | 0.00 | 84 | 1016.5 |
| 20260507074549 | 60 | 297 | 0.0 | 1.7 | 0.00 | 0.00 | 0.00 | 83 | 1016.3 |
| 20260507073043 | 60 | 294 | 0.9 | 2.6 | 0.00 | 0.00 | 0.00 | 83 | 1016.1 |
| 20260507071541 | 60 | 360 | 0.9 | 1.7 | 0.00 | 0.00 | 0.00 | 83 | 1016.2 |
| 20260507070039 | 60 | 342 | 1.7 | 4.3 | 0.00 | 0.00 | 0.00 | 84 | 1016.3 |
| 20260507064539 | 61 | 329 | 2.6 | 5.2 | 0.00 | 0.00 | 0.00 | 84 | 1016.3 |
| 20260507063041 | 61 | 300 | 5.2 | 7.0 | 0.00 | 0.00 | 0.00 | 83 | 1016.4 |
| 20260507061538 | 62 | 287 | 0.9 | 1.7 | 0.00 | 0.00 | 0.00 | 80 | 1016.4 |
| 20260507060036 | 62 | 301 | 1.7 | 3.5 | 0.00 | 0.00 | 0.00 | 79 | 1016.6 |
| 20260507054535 | 62 | 296 | 0.9 | 2.6 | 0.00 | 0.01 | 0.00 | 80 | 1016.6 |
| 20260507053035 | 62 | 330 | 1.7 | 2.6 | 0.00 | 0.01 | 0.00 | 80 | 1016.5 |
| 20260507051535 | 62 | 304 | 0.9 | 3.5 | 0.00 | 0.01 | 0.00 | 80 | 1016.4 |
| 20260507050034 | 62 | 317 | 0.9 | 3.5 | 0.00 | 0.01 | 0.00 | 81 | 1016.4 |
| 20260507044534 | 62 | 315 | 4.3 | 7.8 | 0.00 | 0.01 | 0.00 | 82 | 1016.5 |
| 20260507043038 | 62 | 302 | 7.8 | 11.3 | 0.00 | 0.01 | 0.00 | 83 | 1016.4 |
| 20260507041532 | 62 | 294 | 10.4 | 12.2 | 0.00 | 0.01 | 0.00 | 82 | 1016.2 |
| 20260507040032 | 62 | 284 | 9.6 | 11.3 | 0.00 | 0.01 | 0.00 | 82 | 1016.2 |
| 20260507034535 | 62 | 294 | 9.6 | 13.0 | 0.00 | 0.01 | 0.00 | 82 | 1015.9 |
| 20260507033030 | 62 | 291 | 12.2 | 14.8 | 0.00 | 0.01 | 0.00 | 83 | 1015.9 |
| 20260507031530 | 61 | 288 | 12.2 | 13.9 | 0.00 | 0.01 | 0.00 | 87 | 1015.9 |
| 20260507030030 | 61 | 281 | 12.2 | 13.0 | 0.00 | 0.01 | 0.00 | 88 | 1015.8 |
| 20260507024529 | 61 | 292 | 10.4 | 13.9 | 0.00 | 0.01 | 0.00 | 89 | 1015.8 |
| 20260507023129 | 61 | 292 | 11.3 | 13.9 | 0.00 | 0.01 | 0.00 | 89 | 1015.6 |
| 20260507021527 | 61 | 284 | 12.2 | 13.9 | 0.00 | 0.01 | 0.00 | 89 | 1015.7 |
| 20260507020044 | 62 | 290 | 12.2 | 15.6 | 0.00 | 0.01 | 0.00 | 90 | 1015.5 |
| 20260507014527 | 62 | 288 | 12.2 | 14.8 | 0.00 | 0.01 | 0.00 | 90 | 1015.5 |
| 20260507013027 | 61 | 290 | 13.0 | 14.8 | 0.00 | 0.01 | 0.00 | 89 | 1015.6 |
| 20260507011538 | 62 | 286 | 13.0 | 15.6 | 0.00 | 0.01 | 0.00 | 90 | 1015.5 |
| 20260507010023 | 62 | 292 | 13.0 | 15.6 | 0.00 | 0.01 | 0.00 | 91 | 1015.3 |
| 20260507004519 | 62 | 291 | 13.0 | 15.6 | 0.00 | 0.01 | 0.00 | 90 | 1015.4 |
| 20260507003019 | 62 | 289 | 13.0 | 15.6 | 0.00 | 0.01 | 0.00 | 90 | 1015.3 |
| 20260507001544 | 62 | 285 | 13.0 | 15.6 | 0.00 | 0.01 | 0.00 | 89 | 1015.1 |
| 20260507000017 | 63 | 289 | 13.0 | 15.6 | 0.00 | 0.01 | 0.00 | 84 | 1015.2 |
| 20260506234517 | 63 | 273 | 12.2 | 14.8 | 0.00 | 0.01 | 0.00 | 82 | 1015.1 |
| 20260506233017 | 63 | 288 | 10.4 | 12.2 | 0.00 | 0.01 | 0.00 | 79 | 1015.0 |
| 20260506231513 | 63 | 284 | 8.7 | 10.4 | 0.00 | 0.01 | 0.00 | 82 | 1015.1 |
| 20260506230013 | 63 | 282 | 7.0 | 8.7 | 0.00 | 0.01 | 0.00 | 85 | 1015.2 |
| 20260506224508 | 62 | 285 | 7.8 | 9.6 | 0.00 | 0.01 | 0.00 | 86 | 1015.4 |
| 20260506223006 | 62 | 279 | 7.8 | 10.4 | 0.00 | 0.01 | 0.00 | 87 | 1015.7 |
| 20260506221505 | 62 | 269 | 8.7 | 13.0 | 0.00 | 0.01 | 0.00 | 87 | 1016.0 |
| 20260506220005 | 62 | 277 | 8.7 | 12.2 | 0.00 | 0.02 | 0.00 | 88 | 1016.0 |
| 20260506214503 | 62 | 284 | 9.6 | 12.2 | 0.00 | 0.02 | 0.00 | 87 | 1016.1 |
| 20260506213001 | 61 | 265 | 8.7 | 11.3 | 0.00 | 0.02 | 0.00 | 86 | 1016.2 |
| 20260506211600 | 61 | 271 | 8.7 | 11.3 | 0.00 | 0.02 | 0.00 | 86 | 1016.4 |
| 20260506204602 | 61 | 263 | 9.6 | 13.0 | 0.00 | 0.02 | 0.00 | 86 | 1016.7 |
| 20260506203121 | 61 | 269 | 9.6 | 12.2 | 0.00 | 0.02 | 0.00 | 86 | 1016.9 |
| 20260506194600 | 61 | 247 | 8.7 | 10.4 | 0.00 | 0.02 | 0.00 | 85 | 1017.1 |
| 20260506193105 | 61 | 261 | 7.8 | 9.6 | 0.00 | 0.02 | 0.00 | 86 | 1017.3 |
| 20260506191556 | 61 | 263 | 7.0 | 9.6 | 0.00 | 0.02 | 0.00 | 86 | 1017.4 |
| 20260506190056 | 61 | 251 | 7.8 | 9.6 | 0.00 | 0.02 | 0.00 | 86 | 1017.5 |
| 20260506184555 | 61 | 238 | 7.0 | 9.6 | 0.00 | 0.03 | 0.00 | 85 | 1017.6 |
| 20260506183103 | 61 | 235 | 6.1 | 8.7 | 0.00 | 0.03 | 0.00 | 85 | 1017.7 |
| 20260506181557 | 61 | 240 | 5.2 | 7.8 | 0.00 | 0.03 | 0.00 | 84 | 1017.8 |
| 20260506180054 | 61 | 225 | 4.3 | 7.8 | 0.00 | 0.03 | 0.00 | 85 | 1017.9 |
| 20260506174552 | 61 | 218 | 6.1 | 8.7 | 0.00 | 0.03 | 0.00 | 85 | 1017.7 |
| 20260506173058 | 60 | 178 | 5.2 | 7.0 | 0.00 | 0.03 | 0.00 | 85 | 1017.7 |